Weather History for KNFG - November, 2013

Change the Weather History Date:

Thursday, November 21, 2013

  Actual Average Record
Temperature  
Mean Temperature 58 °F -  
Max Temperature 62 °F 68 °F 88 °F (2002)
Min Temperature 55 °F 40 °F 37 °F (2004)
Degree Days  
Heating Degree Days 6    
Growing Degree Days 8 (Base 50)    
Moisture  
Dew Point 56 °F    
Average Humidity 87    
Maximum Humidity 90    
Minimum Humidity 80    
Precipitation  
Precipitation 1.03 in - - ()
Sea Level Pressure  
Sea Level Pressure 29.88 in    
Wind  
Wind Speed 4 mph (SSW)    
Max Wind Speed 12 mph    
Max Gust Speed 17 mph    
Visibility 6 miles    
Events Rain    
Averages and records for this station are not official NWS values.
T = Trace of Precipitation, MM = Missing Value Source: NWS Daily Summary

Daily Weather History Graph

Daily Weather History Graph

Search for Another Location

Airport or City:

Trip Planner

Search our weather history database for the weather conditions in past years. The results will help you decide how hot, cold, wet, or windy it might be!

Date:

Astronomy

Nov. 21, 2013 Rise Set
Actual Time 6:26 AM PST 4:44 PM PST
Civil Twilight 5:59 AM PST 5:10 PM PST
Nautical Twilight 5:29 AM PST 5:41 PM PST
Astronomical Twilight 4:59 AM PST 6:10 PM PST
Moon 8:23 PM PST (11/21) 9:37 AM PST (11/21)
Length of Visible Light 11h 11m
Length of Day
10h 17m
Waning Gibbous, 84% of the Moon is Illuminated
Nov 21
Waning Gibbous
Nov 25
Last Quarter
Dec 2
New
Dec 9
First Quarter
Dec 17
Full

Hourly Weather History & Observations

Time (PST) Temp. Dew Point Humidity Pressure Visibility Wind Dir Wind Speed Gust Speed Precip Events Conditions
12:14 AM 59.0 °F 55.9 °F 90% 29.90 in 2.0 mi Calm Calm - 0.03 in Rain Light Rain
12:29 AM 60.1 °F 55.9 °F 86% 29.90 in 2.5 mi Calm Calm - 0.04 in Rain Light Rain
12:54 AM 59.0 °F 55.9 °F 90% 29.90 in 2.0 mi SSE 3.5 mph - 0.08 in Rain Rain
1:17 AM 59.0 °F 55.9 °F 90% 29.88 in 3.0 mi SSE 5.8 mph - 0.02 in Rain Light Rain
1:54 AM 59.0 °F 55.9 °F 90% 29.87 in 2.5 mi ESE 4.6 mph - 0.03 in Rain Light Rain
2:24 AM 59.0 °F 55.9 °F 90% 29.87 in 4.0 mi SE 3.5 mph - 0.03 in Rain Light Rain
2:54 AM 59.0 °F 55.9 °F 90% 29.87 in 2.5 mi North 3.5 mph - 0.06 in Rain Light Rain
3:36 AM 59.0 °F 55.9 °F 90% 29.87 in 3.0 mi Calm Calm - 0.03 in Rain Light Rain
3:54 AM 59.0 °F 55.9 °F 90% 29.86 in 3.0 mi SE 6.9 mph - 0.03 in Rain Light Rain
4:43 AM 59.0 °F 55.9 °F 90% 29.86 in 1.8 mi SSE 9.2 mph - 0.04 in Rain Light Rain
4:54 AM 59.0 °F 55.9 °F 90% 29.86 in 2.0 mi South 10.4 mph - 0.05 in Rain Rain
5:05 AM 59.0 °F 55.9 °F 90% 29.87 in 6.0 mi South 8.1 mph - 0.01 in Rain Light Rain
5:54 AM 60.1 °F 57.0 °F 90% 29.87 in 10.0 mi SW 8.1 mph - 0.03 in   Overcast
6:17 AM 60.1 °F 57.0 °F 90% 29.87 in 9.0 mi SSW 8.1 mph - 0.00 in Rain Light Rain
6:39 AM 61.0 °F 55.9 °F 83% 29.88 in 5.0 mi South 11.5 mph - 0.00 in Rain Light Rain
6:46 AM 61.0 °F 57.0 °F 87% 29.88 in 5.0 mi South 9.2 mph - 0.00 in Rain Light Rain
6:54 AM 61.0 °F 57.0 °F 87% 29.88 in 2.0 mi South 9.2 mph - 0.00 in Rain Light Rain
7:06 AM 61.0 °F 57.0 °F 87% 29.89 in 2.0 mi SSW 9.2 mph - 0.04 in Rain Rain
7:39 AM 60.1 °F 57.0 °F 90% 29.90 in 4.0 mi WSW 9.2 mph - 0.10 in   Overcast
7:54 AM 60.1 °F 55.9 °F 86% 29.90 in 4.0 mi SW 9.2 mph - 0.10 in   Overcast
8:54 AM 61.0 °F 57.0 °F 87% 29.90 in 5.0 mi Variable 4.6 mph - N/A   Overcast
9:54 AM 62.1 °F 57.0 °F 84% 29.91 in 4.0 mi SW 8.1 mph - N/A   Overcast
10:01 AM 62.1 °F 57.0 °F 84% 29.91 in 10.0 mi SW 6.9 mph - N/A   Overcast
10:49 AM 60.8 °F 57.2 °F 88% 29.90 in 3.0 mi SW 8.1 mph 17.3 mph 0.02 in Rain Rain
10:54 AM 61.0 °F 57.0 °F 87% 29.90 in 5.0 mi SW 8.1 mph - 0.02 in Rain Light Rain
11:15 AM 62.1 °F 57.0 °F 84% 29.89 in 6.0 mi SW 6.9 mph - 0.00 in Rain Light Rain
11:32 AM 62.1 °F 57.0 °F 84% 29.88 in 6.0 mi WSW 9.2 mph - 0.00 in   Overcast
11:54 AM 62.1 °F 55.9 °F 80% 29.88 in 6.0 mi SW 6.9 mph - 0.00 in   Overcast
12:38 PM 61.0 °F 57.0 °F 87% 29.88 in 2.0 mi SSW 4.6 mph - 0.03 in Rain Rain
12:52 PM 60.8 °F 57.2 °F 88% 29.87 in 5.0 mi SW 4.6 mph - 0.03 in Rain Light Rain
12:54 PM 62.1 °F 57.0 °F 84% 29.87 in 5.0 mi SSW 4.6 mph - 0.03 in Rain Light Rain
1:54 PM 61.0 °F 55.9 °F 83% 29.87 in 10.0 mi WSW 5.8 mph - 0.00 in   Mostly Cloudy
2:54 PM 61.0 °F 55.9 °F 83% 29.87 in 10.0 mi WSW 4.6 mph - 0.00 in Rain Light Rain
3:39 PM 61.0 °F 55.9 °F 83% 29.87 in 10.0 mi SW 4.6 mph - 0.00 in   Mostly Cloudy
3:54 PM 61.0 °F 55.0 °F 81% 29.87 in 10.0 mi WSW 3.5 mph - 0.00 in   Mostly Cloudy
4:54 PM 60.1 °F 55.0 °F 83% 29.86 in 10.0 mi Calm Calm - 0.00 in Rain Light Rain
5:54 PM 59.0 °F 55.0 °F 87% 29.87 in 10.0 mi Calm Calm - 0.00 in   Mostly Cloudy
6:54 PM 57.9 °F 55.0 °F 90% 29.88 in 10.0 mi Calm Calm - N/A   Mostly Cloudy
7:12 PM 57.0 °F 54.0 °F 89% 29.88 in 1.8 mi Calm Calm - 0.12 in Rain Heavy Rain
7:40 PM 57.9 °F 55.0 °F 90% 29.88 in 4.0 mi Calm Calm - 0.46 in Rain Light Rain
7:54 PM 57.9 °F 55.0 °F 90% 29.88 in 7.0 mi NW 3.5 mph - 0.46 in Rain Light Rain
8:20 PM 57.9 °F 54.0 °F 87% 29.88 in 10.0 mi NNE 3.5 mph - 0.00 in   Mostly Cloudy
8:54 PM 57.9 °F 54.0 °F 87% 29.88 in 6.0 mi ENE 3.5 mph - 0.01 in Rain Light Rain
9:06 PM 57.9 °F 55.0 °F 90% 29.88 in 2.0 mi Calm Calm - 0.07 in Rain Heavy Rain
9:31 PM 57.9 °F 54.0 °F 87% 29.88 in 4.0 mi NNE 3.5 mph - 0.13 in Rain Light Rain
9:54 PM 57.0 °F 54.0 °F 89% 29.88 in 6.0 mi Calm Calm - 0.13 in Rain Light Rain
10:54 PM 57.0 °F 54.0 °F 89% 29.88 in 10.0 mi Calm Calm - 0.00 in   Mostly Cloudy
11:10 PM 55.9 °F 53.1 °F 90% 29.88 in 10.0 mi Calm Calm - N/A   Overcast
11:54 PM 55.9 °F 52.0 °F 87% 29.86 in 10.0 mi ENE 3.5 mph - N/A   Mostly Cloudy